Wind_Speed
65 66 67 68 68 69 70 71 71 72 73 73 74 74 75 76 77 77 78 79 80 80 81 82 82 83 83 84 85 85 85 85 86 86 86 86 86 86 86 86 86 86 85 85 85 85 85 84 84 83 83 83 83 82 81 81 80 80 79 78 77 76 76 75 74 73 72 71 71 70 69 69 69 69 69 68 68 67 66 66 65 65 64 62 61 59
64 65 66 66 67 68 70 71 71 72 73 74 75 76 77 77 78 79 80 81 82 83 83 84 84 85 85 86 86 86 86 86 86 86 86 86 86 86 86 86 86 86 86 86 86 86 86 86 85 85 86 85 84 83 83 82 82 81 80 80 79 78 78 77 76 75 74 74 73 71 71 70 70 69 69 69 68 68 67 67 66 65 65 64 63 61
62 64 65 66 67 68 69 71 71 72 73 74 75 76 77 78 78 79 80 80 81 81 82 82 82 82 83 83 83 83 83 83 83 83 83 83 83 84 84 84 84 84 84 84 85 85 86 86 86 85 85 85 84 83 82 82 82 81 81 80 79 79 79 78 78 77 76 75 74 73 72 71 71 70 70 69 69 68 68 67 66 66 65 65 64 63
62 63 64 65 66 67 67 68 69 69 70 70 71 71 72 72 72 72 72 72 73 73 73 73 73 73 74 74 74 74 74 75 75 75 75 76 76 77 78 78 79 79 80 81 82 82 83 84 84 84 83 84 84 83 83 82 81 81 80 79 79 80 80 79 79 78 76 76 75 74 73 72 72 71 70 70 69 69 68 68 67 66 66 65 65 64
59 59 59 59 60 60 60 59 59 59 59 59 59 59 59 59 59 59 59 59 60 60 60 60 61 61 62 62 63 63 63 64 64 65 65 66 67 68 69 70 71 72 73 75 76 78 79 81 82 82 82 82 83 83 83 83 82 81 80 80 80 80 80 80 79 78 77 76 75 74 73 72 72 72 71 70 70 69 69 68 68 67 66 66 65 65
51 50 50 49 49 49 48 48 48 48 48 48 48 48 48 48 49 49 50 50 50 51 51 52 53 54 54 55 55 56 56 57 57 58 58 59 59 60 61 62 63 64 66 67 69 71 73 75 77 78 79 80 81 82 83 83 82 81 81 81 81 81 81 81 80 79 78 77 76 74 73 72 72 72 72 71 70 70 69 69 68 67 67 66 66 65
41 41 41 41 41 41 42 42 42 42 43 43 44 44 45 45 46 47 48 48 49 49 50 51 52 53 53 54 54 55 55 55 55 56 56 56 57 57 57 58 58 59 60 61 62 64 66 68 71 73 75 77 78 80 81 82 82 82 81 81 81 81 81 81 81 80 79 78 77 76 74 73 73 73 73 72 71 71 70 69 69 68 67 67 66 66
37 38 39 39 40 41 41 42 43 43 44 44 45 46 46 47 48 49 50 50 51 52 52 53 54 55 56 56 57 57 57 57 57 57 58 58 58 58 58 58 58 58 58 59 59 60 61 62 64 66 69 71 73 76 78 79 80 80 81 82 82 82 82 82 82 81 80 80 79 78 77 76 75 75 74 73 72 71 71 70 69 68 68 67 67 66
38 39 40 41 42 42 43 44 44 45 46 46 47 48 48 49 50 50 51 52 53 54 55 55 56 57 58 59 59 59 60 60 60 60 60 60 60 61 61 61 61 61 60 60 60 60 60 60 61 62 63 65 68 70 72 75 76 78 79 80 82 82 83 83 83 82 81 81 80 79 78 77 76 76 75 74 74 73 72 71 70 69 68 68 67 67
39 40 41 42 42 43 44 45 45 46 47 48 48 49 50 50 51 52 52 53 55 55 56 57 58 59 60 60 61 61 62 62 62 62 62 62 63 63 63 63 63 63 63 63 63 63 62 62 61 61 62 62 63 65 67 69 71 74 76 78 80 81 82 83 83 84 83 82 81 81 80 79 78 77 77 76 76 75 73 72 71 70 69 68 68 67
39 40 41 42 43 44 45 46 46 47 48 49 50 51 51 52 53 53 54 55 56 57 58 59 60 61 61 62 63 63 64 64 64 64 64 65 65 65 65 65 65 65 66 66 66 65 65 65 64 64 63 63 63 63 64 65 66 69 71 73 76 78 80 82 83 84 84 84 84 83 82 81 80 78 78 77 77 76 75 73 71 70 69 68 67 67
40 41 42 43 44 45 46 47 48 48 49 50 51 52 53 54 55 56 56 57 58 59 60 60 62 63 64 65 65 66 66 66 66 66 67 67 68 68 68 68 68 68 68 68 68 68 68 67 67 67 66 65 65 64 64 64 64 65 66 69 71 74 77 79 81 82 84 84 84 84 84 83 81 80 78 78 78 77 76 74 71 69 68 68 67 67
41 42 43 44 45 46 47 48 50 51 52 53 54 55 56 57 58 59 60 61 61 62 63 63 64 66 67 68 69 69 69 69 69 69 69 70 70 71 71 71 71 70 70 70 70 70 70 70 69 69 69 68 68 67 66 65 65 64 64 65 67 69 72 75 77 80 81 83 83 84 84 84 83 82 80 79 78 78 76 73 69 67 67 67 68 67
42 43 45 46 47 48 50 51 52 53 54 55 56 58 59 60 61 62 63 64 65 66 66 67 68 69 70 71 72 73 73 73 73 73 73 73 74 74 74 74 74 74 73 73 73 73 72 72 72 72 71 71 71 70 69 68 67 66 65 65 65 66 68 70 73 76 78 80 81 82 83 84 85 84 83 82 81 79 76 71 67 65 66 67 68 68
44 45 47 48 49 51 52 53 54 56 57 58 59 60 62 63 64 65 66 67 68 69 69 70 71 72 74 75 76 77 77 77 77 77 77 77 78 78 78 78 78 77 77 76 76 76 76 75 75 75 74 74 73 73 72 71 70 69 68 67 66 66 67 67 69 71 73 75 77 79 81 83 84 85 85 85 83 81 77 72 68 66 67 67 68 69
46 47 48 50 51 52 53 55 56 57 59 60 61 62 63 65 66 67 68 69 70 71 72 73 74 75 77 78 80 81 81 81 81 81 81 81 82 83 83 82 82 81 81 80 80 80 79 79 78 78 77 77 76 76 75 74 73 72 71 70 69 68 68 67 67 68 69 70 73 75 78 81 83 84 85 86 85 83 79 74 70 68 68 67 68 69
47 48 49 51 52 53 55 56 57 59 60 61 63 64 65 67 68 69 70 71 73 74 75 76 77 78 79 80 82 83 84 85 85 85 85 85 86 87 87 87 86 86 85 84 84 84 83 82 82 81 81 80 79 79 78 77 76 75 74 73 72 71 70 69 68 67 66 67 68 71 74 78 80 83 84 85 85 83 80 76 73 71 70 68 68 69
48 49 50 52 53 54 56 57 58 60 61 62 64 65 66 68 69 71 72 73 74 75 77 78 79 80 81 83 84 86 87 87 88 88 88 88 89 90 91 91 90 90 89 89 88 88 87 87 86 85 84 84 83 82 81 80 79 78 77 76 75 74 73 71 70 68 67 66 66 68 71 74 77 80 82 83 84 83 81 78 76 74 73 71 70 71
48 50 51 52 54 55 56 58 59 60 62 63 64 66 67 69 70 71 73 74 75 77 78 79 81 82 83 85 86 88 89 90 90 91 91 91 92 93 94 94 94 93 93 93 93 92 92 91 90 89 88 87 86 85 84 83 82 81 80 79 78 76 75 74 72 71 69 68 67 67 68 70 73 76 79 81 82 83 82 80 78 77 76 75 75 75
49 50 52 53 54 56 57 58 60 61 62 63 65 66 68 69 70 72 74 75 77 78 79 81 82 84 85 86 88 89 90 91 92 92 93 93 94 95 96 96 96 96 96 96 96 96 96 95 94 93 93 92 91 89 88 87 85 84 83 82 81 79 78 76 75 73 72 70 69 68 68 68 70 72 75 78 80 82 83 82 80 79 79 78 78 78
50 51 52 53 55 56 57 59 60 61 62 64 65 67 68 70 72 73 75 76 78 79 81 82 83 85 86 87 88 90 91 92 92 93 94 94 95 96 97 98 98 98 98 98 99 99 98 98 98 97 96 96 95 93 92 90 89 87 86 85 83 82 81 79 77 76 74 73 72 70 69 68 68 69 71 74 77 80 82 83 82 81 80 80 80 81
51 52 53 54 55 57 58 60 61 62 64 66 67 69 70 72 73 75 76 78 79 80 81 82 83 84 85 86 88 89 90 91 92 93 93 94 94 95 97 98 98 98 99 99 100 100 100 100 99 99 99 98 98 97 96 94 93 91 89 88 86 85 83 82 80 79 77 76 74 73 71 69 68 68 69 71 74 78 81 82 82 82 81 81 81 82
52 53 54 56 57 58 60 61 63 65 66 68 70 71 73 74 75 77 78 78 79 80 80 81 82 82 83 84 86 87 88 89 90 91 91 91 92 94 95 96 96 97 98 99 99 100 100 100 100 100 100 100 100 99 98 97 96 94 93 91 89 88 86 85 83 81 80 78 77 75 73 72 70 68 68 69 71 74 78 80 82 82 82 82 82 82
53 55 56 58 59 60 62 64 65 67 68 70 72 73 74 76 77 78 78 79 79 79 79 79 80 80 81 81 82 84 85 86 87 87 88 88 89 91 92 93 93 94 95 96 97 98 98 98 99 99 99 100 100 100 100 99 99 97 96 94 92 90 89 87 86 84 83 81 79 78 76 74 72 70 69 69 70 72 74 78 80 82 83 83 83 83
55 57 58 60 61 63 64 66 67 69 70 72 73 75 76 77 78 78 79 79 78 78 78 77 77 77 78 78 79 80 81 83 83 84 84 85 85 87 88 89 89 90 91 92 93 94 94 95 96 97 97 98 98 99 99 99 99 99 98 96 95 93 91 89 88 87 85 84 82 80 78 76 74 73 71 70 69 70 72 75 78 80 82 83 83 83
57 59 60 62 63 65 66 68 69 71 72 74 75 76 77 78 78 79 78 78 77 76 76 75 74 74 75 75 75 76 78 79 80 80 80 80 81 82 83 84 85 85 86 88 88 89 89 90 91 92 93 94 95 96 97 98 98 99 98 98 97 95 93 92 90 89 87 86 84 83 81 79 77 75 73 71 70 70 70 72 75 78 80 82 83 83
59 61 63 64 66 67 69 70 72 73 74 76 77 78 78 79 79 78 78 77 76 75 74 73 72 72 72 72 72 73 74 75 75 76 76 76 76 77 78 79 80 80 81 82 83 83 83 84 86 87 88 89 91 92 93 95 96 97 97 97 97 96 95 93 92 91 89 88 87 85 83 81 79 77 75 73 72 71 70 71 73 75 78 80 81 83
61 63 65 66 68 69 71 72 74 75 76 77 78 79 79 79 79 78 77 76 75 73 72 71 70 69 69 69 69 69 70 70 71 72 72 71 71 72 73 74 74 75 75 76 77 77 78 78 80 81 82 84 86 87 88 90 92 93 94 95 96 96 95 94 93 92 91 90 89 87 86 84 82 80 78 76 74 72 71 71 72 73 75 77 79 81
63 65 67 68 70 71 73 74 76 77 78 79 80 80 80 80 79 77 76 75 73 72 71 70 68 67 67 66 66 66 66 66 67 67 67 65 65 66 68 67 68 69 69 70 70 71 71 72 74 75 77 78 80 81 83 85 87 88 90 92 93 94 94 94 94 93 92 91 90 89 88 86 85 83 81 78 76 74 73 72 72 72 72 74 76 78
65 67 68 70 71 73 74 76 77 78 79 80 81 81 81 80 79 77 76 74 72 70 69 68 67 66 65 64 63 62 62 62 62 62 61 59 60 60 61 60 61 63 63 63 63 63 63 65 67 69 71 72 74 75 77 79 81 83 85 87 89 90 92 93 93 93 92 92 91 90 90 89 87 85 83 81 79 77 75 73 72 72 71 72 73 74
66 68 70 71 73 74 76 77 78 80 80 81 81 81 81 80 78 77 75 73 71 69 67 66 65 64 63 62 60 59 59 58 58 57 56 54 54 55 54 54 55 56 57 56 56 56 57 58 59 61 64 66 68 70 71 73 75 77 80 82 84 86 88 90 91 91 92 92 92 91 91 90 89 87 86 83 81 79 77 75 74 73 72 71 71 71
68 70 71 73 74 76 77 78 79 80 81 81 81 81 80 79 77 75 73 71 69 67 66 65 64 62 61 60 58 57 56 55 54 53 51 50 49 50 49 48 48 50 51 51 50 50 51 51 52 54 56 58 61 63 66 68 70 72 74 76 78 81 84 86 88 89 90 91 91 92 91 91 90 89 88 86 84 81 79 77 76 74 72 71 70 70
69 71 72 74 75 77 78 79 80 81 81 81 81 80 79 77 76 74 72 70 68 66 64 63 62 61 59 58 56 55 54 52 51 50 48 46 45 45 44 43 43 44 44 45 45 46 46 46 47 48 49 52 54 57 59 62 64 66 68 70 73 75 79 81 83 85 87 89 90 91 91 92 91 91 89 88 86 84 81 80 78 76 74 72 71 70
70 72 73 75 76 77 78 79 80 80 80 80 79 78 77 75 73 71 69 67 66 64 62 61 60 59 58 56 54 53 51 50 48 46 45 43 42 41 40 40 39 39 39 39 40 40 41 42 42 43 44 47 49 51 53 56 58 60 62 64 67 70 73 76 78 81 84 86 88 89 90 91 91 91 91 89 88 86 84 82 80 78 76 74 72 71
71 72 74 75 76 77 78 79 79 79 79 78 77 76 74 72 70 68 67 65 63 62 61 60 59 58 56 55 53 51 49 47 45 43 42 40 39 38 37 36 36 35 35 35 35 35 36 37 38 39 40 41 43 45 48 50 52 55 57 59 61 64 67 70 73 76 79 82 84 86 88 90 91 91 91 90 89 88 86 84 82 80 78 76 74 73
71 73 74 75 76 77 77 78 78 77 77 75 74 72 71 69 67 65 63 62 60 59 58 58 57 56 55 54 52 50 48 45 43 41 39 38 36 35 35 34 33 32 32 32 32 32 32 33 34 35 36 37 39 41 43 45 47 49 51 54 56 59 62 65 68 71 74 77 80 83 85 88 89 90 91 91 91 90 88 86 84 82 80 78 76 75
72 73 74 75 76 76 76 76 76 75 74 73 71 69 67 65 63 61 60 58 57 56 56 56 55 55 54 53 51 49 46 44 42 39 37 35 34 33 32 31 31 30 30 30 29 29 29 29 30 31 32 33 35 36 38 40 42 44 46 48 51 54 57 60 63 65 68 72 75 79 82 84 87 89 90 91 91 91 90 88 86 84 82 80 78 76
72 73 74 75 75 75 75 75 74 73 72 70 68 66 64 61 59 57 56 55 54 54 53 53 53 53 52 51 50 48 45 43 41 38 36 34 32 31 30 29 28 28 28 27 27 27 27 27 27 28 29 30 31 33 35 36 37 39 42 44 46 48 51 54 57 60 63 67 70 74 77 80 83 86 88 90 91 91 91 90 88 86 84 82 80 78
72 73 74 74 74 74 74 73 72 71 69 68 65 63 60 58 56 54 53 52 51 51 50 50 50 51 50 49 48 46 44 42 40 38 35 33 31 29 28 27 26 26 26 25 26 25 25 25 25 25 26 27 28 30 31 33 34 36 38 39 41 43 46 49 52 55 58 61 65 68 72 76 79 82 85 87 89 90 91 90 90 88 86 83 81 79
72 73 73 74 74 73 73 72 70 69 67 65 63 61 58 55 53 51 50 49 49 48 48 48 48 48 48 48 46 45 43 41 39 37 35 32 30 28 26 25 24 24 24 24 24 24 24 24 24 24 24 24 25 26 28 30 32 33 34 35 36 39 42 44 47 50 53 56 59 63 67 71 74 78 81 84 86 88 89 90 90 89 87 85 83 81
71 72 73 73 73 73 72 70 69 67 65 63 61 59 56 53 51 49 48 47 47 46 46 46 46 46 46 46 45 43 42 40 38 36 34 32 29 27 25 24 23 22 22 22 22 22 23 23 23 23 23 23 24 24 25 27 29 30 31 32 33 35 37 39 42 45 48 51 54 58 62 66 69 73 77 80 83 86 88 89 90 90 89 87 84 82
71 71 72 72 72 71 70 69 67 65 63 61 59 57 54 52 49 48 46 46 45 45 44 44 44 44 44 44 43 42 41 39 38 36 34 32 30 27 25 23 22 22 21 21 21 21 22 22 22 22 23 23 23 23 24 25 26 27 28 29 30 32 33 35 38 41 43 46 50 53 57 60 64 68 72 76 80 83 86 88 89 89 89 88 86 84
70 71 71 71 71 70 69 67 65 63 61 59 58 55 53 50 48 46 45 44 43 43 43 42 42 42 42 42 41 40 39 38 37 36 35 33 30 28 26 24 22 21 21 21 21 20 21 21 21 22 22 22 22 23 23 24 25 26 27 27 28 28 29 32 35 37 39 42 45 49 52 56 60 64 68 72 75 79 82 85 87 88 89 88 87 85
70 70 70 70 70 69 68 66 64 62 60 58 56 54 52 49 47 45 43 42 42 41 41 41 41 40 40 40 39 38 38 37 36 36 35 33 31 29 27 25 24 22 21 21 21 20 20 20 21 21 21 22 22 23 23 23 24 25 25 26 26 26 27 29 31 33 35 38 41 44 48 52 55 59 63 67 71 75 78 82 85 87 88 88 88 86
70 70 70 70 69 68 66 64 62 60 58 56 54 52 50 48 46 44 42 41 41 40 40 40 40 39 39 38 38 37 36 36 35 34 34 33 32 31 29 28 26 24 23 22 22 21 21 21 21 21 21 21 22 22 23 23 23 24 25 25 26 26 27 27 28 30 32 35 38 41 44 48 51 54 58 62 66 70 74 78 82 84 87 88 88 87
69 69 69 68 68 66 64 63 61 59 57 55 53 51 49 47 45 43 41 40 40 40 39 39 39 39 38 38 37 36 35 34 34 33 33 32 32 32 31 30 29 27 26 25 24 23 23 22 22 21 21 21 21 22 22 23 23 24 24 25 25 26 26 26 27 28 30 32 34 38 41 44 47 50 54 58 62 67 71 75 79 82 85 87 87 87
68 68 68 67 66 65 64 62 60 58 56 54 52 50 48 46 44 42 41 40 39 39 39 39 38 38 38 38 37 36 35 34 33 32 32 31 31 31 31 31 30 30 29 28 27 26 26 25 24 24 23 23 22 22 22 23 23 23 24 24 25 25 26 26 27 27 28 30 32 35 38 40 43 47 51 55 59 63 67 71 75 79 83 85 87 87
67 67 67 66 65 64 62 61 59 56 54 53 51 49 47 45 43 41 40 39 39 38 38 38 38 38 38 37 37 36 35 34 33 32 32 31 30 30 30 30 30 30 30 30 30 29 29 28 28 27 26 25 25 24 23 23 24 24 24 24 24 25 25 26 26 27 27 28 30 32 35 37 40 44 48 51 55 59 64 68 72 76 80 83 85 87
67 66 66 65 64 63 61 59 58 55 53 51 50 48 46 44 42 40 39 38 38 38 38 37 37 37 37 37 37 36 36 35 34 33 32 31 31 30 30 30 30 30 30 30 30 31 31 31 31 30 30 29 28 27 26 25 25 24 24 24 24 24 25 25 26 27 27 28 29 30 32 35 38 41 44 47 51 56 60 65 69 73 77 81 84 86
66 66 65 64 63 61 60 58 56 55 52 51 48 47 45 43 41 39 38 38 37 37 37 37 36 36 36 36 36 36 36 35 35 34 33 32 32 31 30 30 29 29 29 29 30 30 31 31 32 32 32 32 31 30 29 28 27 26 25 24 24 24 24 24 25 26 27 27 28 29 31 33 36 38 41 44 48 53 57 62 66 70 75 79 82 85
65 65 64 63 62 60 59 57 55 54 52 50 48 46 44 42 40 38 37 37 36 36 36 36 36 36 36 35 35 35 35 35 35 34 34 33 33 32 31 31 30 29 29 29 29 29 30 30 31 32 33 34 34 33 32 31 29 28 27 26 25 24 24 24 24 25 26 27 28 29 30 31 33 36 38 42 45 49 53 58 63 68 72 76 80 83
Wind_Direction
271 271 271 272 272 272 273 273 273 273 273 273 273 273 273 273 273 273 273 273 273 273 273 273 273 273 273 272 272 272 272 272 272 271 271 271 270 270 270 269 269 268 268 267 267 266 265 264 264 263 263 263 263 262 262 262 262 262 262 262 262 262 261 261 261 260 260 259 259 259 258 258 257 256 255 255 254 254 254 254 254 254 254 254 254 255
272 272 272 272 273 273 273 273 273 274 274 274 274 274 274 274 274 274 274 274 273 273 273 273 273 273 273 273 272 272 272 272 272 271 271 271 270 270 269 269 268 268 267 267 266 266 265 264 264 263 263 262 262 262 261 261 261 261 261 261 261 261 260 260 260 260 259 259 259 258 258 257 256 256 255 254 254 254 253 253 253 253 253 253 253 253
273 273 273 274 274 274 274 274 274 274 274 274 274 274 274 274 274 274 274 274 274 274 274 273 273 273 273 273 272 272 272 272 271 271 271 270 270 269 269 268 268 267 267 266 265 265 265 264 263 263 262 261 261 260 260 260 260 260 260 260 260 260 259 259 259 259 259 258 258 257 257 256 256 255 254 254 253 253 253 252 252 252 252 253 253 253
275 275 275 275 275 275 275 275 275 275 275 275 275 275 275 275 275 274 274 274 274 274 274 274 274 273 273 273 273 272 272 272 271 271 271 270 270 269 269 268 268 267 266 265 265 264 264 264 263 262 261 261 260 259 259 258 258 258 259 259 258 258 258 258 258 258 257 257 257 256 256 256 255 255 254 253 253 252 252 252 252 252 252 252 252 252
276 276 276 276 276 276 276 276 276 276 276 276 276 276 276 276 276 276 275 275 275 275 275 275 275 274 274 274 274 273 273 273 272 272 272 271 271 270 270 269 268 267 267 266 265 264 264 263 263 262 261 260 259 259 258 257 257 256 257 257 257 257 257 257 257 257 256 256 256 255 255 255 254 254 253 253 252 252 251 251 251 251 251 251 252 252
277 277 277 278 278 278 278 278 278 278 278 278 278 278 278 278 278 278 277 277 277 277 277 276 276 276 276 275 275 275 274 274 274 274 273 273 272 272 271 271 270 269 268 267 266 265 264 264 263 262 261 260 259 259 258 257 256 256 255 256 256 256 256 256 256 256 256 255 255 254 254 254 254 253 253 253 252 252 251 251 251 250 251 251 251 251
278 278 279 279 279 279 280 280 280 280 280 280 280 280 280 280 280 279 279 279 279 278 278 278 278 277 277 277 276 276 276 275 275 275 275 274 274 273 273 272 272 271 270 269 268 267 266 265 264 263 262 261 260 259 258 257 256 256 255 255 255 255 255 255 255 255 255 254 254 254 253 253 253 253 253 253 253 252 252 251 250 250 250 250 251 251
279 279 280 280 281 281 281 281 281 281 281 281 281 281 281 281 281 281 281 280 280 280 279 279 279 278 278 278 277 277 276 276 276 275 275 275 274 274 274 273 273 272 272 271 270 269 268 267 266 265 263 262 261 260 259 258 257 256 255 254 254 254 254 254 254 254 254 254 253 253 253 252 252 252 252 252 253 252 252 251 251 250 250 250 250 250
280 281 281 281 282 282 283 283 283 283 283 283 282 282 282 282 281 281 281 281 281 281 280 280 279 279 278 278 278 277 277 276 276 275 275 275 274 274 274 273 273 272 272 271 271 270 269 268 267 266 265 264 263 261 260 259 258 257 256 255 254 254 253 253 253 253 253 253 253 252 252 252 252 252 252 252 252 252 252 252 251 250 250 250 250 250
282 282 283 283 283 283 284 284 284 284 284 284 283 283 283 282 282 282 281 281 281 281 281 280 280 279 279 278 278 277 277 276 276 275 275 274 274 273 273 273 272 272 272 271 271 270 270 269 268 268 267 266 264 263 262 261 259 258 257 256 255 254 253 253 252 252 252 252 252 251 251 251 251 252 252 252 251 251 251 251 251 251 250 250 250 250
283 283 284 284 284 284 284 285 285 285 284 284 284 284 283 283 283 282 282 281 281 281 280 280 280 279 279 278 278 277 277 276 276 275 275 274 274 273 273 272 271 271 271 270 270 270 269 269 269 268 267 267 266 265 263 262 261 260 258 257 255 254 254 253 252 252 251 251 251 250 250 250 251 251 252 252 251 251 251 251 251 251 251 250 250 249
285 285 286 286 286 286 286 286 286 286 286 286 286 286 286 285 285 284 284 283 282 282 281 281 280 280 280 279 278 277 277 276 276 275 275 274 274 273 272 272 271 270 270 269 269 269 269 268 268 268 267 267 266 265 264 263 262 261 260 258 257 255 254 254 253 252 251 251 250 250 250 250 250 250 251 251 251 251 251 251 251 252 252 251 250 250
288 288 288 289 289 289 289 290 289 289 289 289 289 289 288 288 287 287 286 285 285 284 283 283 282 281 281 280 279 279 278 277 276 276 275 274 274 273 272 272 271 270 270 269 268 268 268 267 267 267 266 266 265 265 264 263 263 262 261 260 258 257 256 254 253 252 252 251 250 250 249 249 249 249 249 249 250 251 251 251 251 251 252 252 252 251
291 292 292 292 293 293 293 293 293 293 292 292 291 291 291 290 289 289 288 287 287 286 285 284 284 283 282 281 281 280 279 278 277 276 275 275 274 273 272 271 271 270 269 269 268 267 267 266 266 265 265 265 264 264 263 263 262 262 261 261 260 258 257 256 254 253 252 251 251 250 249 248 248 248 248 248 249 249 249 249 248 248 249 250 251 251
295 295 296 296 296 295 295 295 294 294 294 293 293 292 291 291 290 289 289 288 287 287 286 285 284 284 283 282 281 280 279 278 277 277 276 275 274 273 272 272 271 270 269 268 268 267 266 266 265 265 264 263 263 263 262 262 262 261 261 260 260 259 258 257 255 254 253 252 251 250 249 249 248 247 247 247 248 248 248 247 245 244 244 245 247 249
297 297 297 297 296 296 296 295 295 294 294 293 293 292 292 291 290 290 289 288 287 286 286 285 284 283 282 282 281 281 280 279 278 277 276 275 274 274 273 272 271 270 269 268 268 267 266 265 265 264 263 263 262 262 261 261 260 260 260 259 259 258 258 257 256 256 255 253 252 251 250 249 248 247 247 247 247 247 247 245 243 241 240 241 243 245
297 297 296 296 296 296 296 295 295 294 294 293 293 292 291 291 290 289 288 287 287 286 285 284 283 282 281 280 280 279 279 278 277 276 275 275 274 273 273 272 271 270 269 268 267 267 266 265 264 263 263 262 261 261 260 260 259 259 258 258 258 258 257 257 257 256 255 255 253 252 250 249 248 248 247 247 247 247 246 244 241 239 239 239 241 243
297 296 296 296 296 295 295 295 294 294 293 292 292 291 290 290 289 288 287 286 285 285 283 282 281 280 280 279 278 277 276 276 275 275 274 273 273 272 272 271 270 270 269 268 267 267 266 265 264 263 262 262 261 260 260 259 258 258 257 257 257 256 256 256 256 256 255 255 254 252 251 249 248 248 247 247 247 246 245 243 240 238 238 239 241 243
296 296 296 296 295 295 294 294 293 293 292 292 291 291 290 289 289 288 287 287 286 285 284 283 281 280 279 278 277 276 275 274 274 273 272 272 271 270 270 270 269 269 268 267 267 266 266 265 264 263 262 261 260 260 259 258 258 257 256 256 256 255 255 255 255 255 255 254 253 252 251 250 249 248 247 247 246 245 245 243 240 238 237 238 240 242
296 296 296 295 295 295 294 294 294 294 294 293 293 293 292 292 291 291 290 289 288 287 286 285 283 282 280 279 278 276 275 274 273 272 271 270 270 269 268 268 268 267 267 266 266 265 265 264 264 263 262 261 260 259 258 258 257 256 256 255 255 254 254 254 254 254 253 253 253 252 251 250 249 248 247 246 245 245 244 243 241 238 237 237 238 241
297 297 297 297 297 297 297 297 297 297 297 297 297 296 296 295 295 294 293 292 291 290 288 287 285 284 282 281 279 277 276 275 274 272 271 270 269 268 268 267 267 266 266 265 265 264 264 263 263 262 262 261 260 259 258 257 256 255 255 254 254 253 253 252 252 252 252 252 252 252 251 250 250 249 247 246 245 244 244 243 241 239 237 236 237 239
299 300 300 300 301 301 301 301 301 301 301 301 300 300 299 299 298 297 296 295 293 292 291 289 288 286 284 283 281 279 277 276 275 273 271 270 269 268 267 267 266 266 265 264 264 263 263 262 262 261 261 260 260 259 258 257 256 255 254 253 253 252 252 251 251 251 251 251 251 251 250 250 250 249 248 247 245 244 244 243 242 240 238 237 237 238
303 303 304 304 305 305 305 305 305 305 304 304 303 303 302 302 301 300 299 297 296 295 293 291 290 288 286 285 283 281 279 277 276 274 273 271 270 268 267 267 266 266 265 264 263 263 262 262 261 260 260 259 259 258 258 257 256 255 254 253 252 251 251 250 250 250 249 249 249 249 249 249 249 249 248 247 246 245 244 243 242 241 239 238 237 237
306 307 307 308 308 308 308 308 307 307 307 307 306 306 305 304 304 303 302 300 299 297 296 294 292 290 289 287 285 283 281 279 278 276 274 273 271 269 268 267 266 266 265 264 263 262 262 261 260 260 259 259 258 258 257 256 256 255 254 253 252 251 250 249 249 249 248 248 248 248 248 248 248 248 247 247 246 245 244 243 242 241 240 238 237 237
309 310 310 310 310 310 310 310 310 310 309 309 309 308 308 307 306 305 304 303 302 300 298 297 295 293 291 289 287 286 284 282 280 278 277 275 273 271 270 268 267 266 265 264 263 263 262 261 260 259 259 258 257 257 256 256 255 254 254 253 252 250 249 248 248 247 247 247 246 246 246 246 246 247 246 246 246 245 244 243 242 241 240 239 238 237
312 312 312 312 312 312 312 312 312 312 312 311 311 310 310 309 309 308 307 305 304 303 301 300 298 296 294 292 290 288 286 284 283 281 279 277 275 273 272 270 269 268 266 265 264 263 262 261 260 259 259 258 257 256 255 255 254 254 253 252 251 250 249 248 247 246 246 245 245 245 245 245 245 245 245 245 245 245 244 243 242 241 240 239 238 237
314 314 314 314 314 314 314 314 314 314 314 313 313 313 312 312 311 310 309 308 307 306 304 302 300 298 296 295 293 291 289 287 286 284 282 280 278 276 274 273 271 269 268 266 265 264 263 262 261 260 259 258 257 256 255 254 253 253 252 251 250 250 249 247 246 245 244 244 244 243 243 243 243 243 243 243 244 243 243 243 242 241 240 239 238 238
315 315 315 316 316 316 316 316 316 316 315 315 315 315 315 314 313 312 311 310 309 308 307 305 303 301 300 298 296 294 292 291 289 287 285 284 282 279 277 275 273 272 270 268 266 265 264 263 262 260 259 258 257 256 255 254 253 252 251 251 250 249 248 247 246 244 243 243 242 242 242 242 242 242 242 242 242 242 242 242 242 241 240 240 239 238
316 317 317 317 317 317 317 317 317 317 317 317 317 317 316 316 315 315 314 313 312 311 309 308 306 305 303 301 299 298 296 294 292 290 289 287 285 283 280 279 277 274 272 270 268 267 266 265 263 262 260 258 257 256 255 254 253 252 251 250 249 248 247 246 245 244 243 241 241 240 240 240 240 240 240 240 240 240 241 241 241 240 240 239 239 238
318 318 318 318 319 319 319 319 319 319 319 319 319 318 318 318 317 316 316 315 314 313 312 311 310 308 307 305 303 301 300 298 296 295 293 292 289 286 284 283 280 278 275 273 270 268 267 266 265 263 261 259 258 256 255 254 253 252 251 250 248 247 246 245 244 243 242 241 240 239 239 238 238 238 238 238 238 239 239 239 239 239 239 239 238 238
319 319 319 320 320 320 320 320 320 320 320 320 320 320 319 319 319 318 317 317 316 316 315 314 313 311 310 309 308 306 304 302 300 299 298 297 294 291 289 287 284 281 279 276 273 270 268 266 266 265 263 261 259 257 256 254 253 252 250 249 248 247 246 245 244 242 241 240 239 238 237 237 237 237 237 237 237 237 237 237 238 238 238 237 237 237
320 320 320 321 321 321 321 321 321 321 321 321 321 321 320 320 320 319 319 318 318 318 317 316 316 315 314 313 312 310 308 306 305 304 303 301 298 296 294 291 288 285 283 280 277 273 269 267 266 265 264 263 261 259 257 256 254 252 251 249 248 247 246 245 243 242 241 239 238 237 236 235 235 235 235 235 235 235 235 236 236 236 236 236 236 235
321 321 321 322 322 322 322 322 322 322 322 322 322 322 321 321 320 320 320 320 320 319 319 319 318 317 317 316 315 313 311 310 309 308 308 306 303 301 299 296 292 289 287 284 281 277 273 269 266 265 264 264 263 261 260 258 256 254 252 250 249 247 246 244 243 242 240 239 238 236 235 234 234 234 234 234 234 234 234 234 235 235 235 235 234 234
322 322 322 323 323 323 323 323 323 323 323 323 323 322 322 321 321 321 321 321 321 321 321 321 320 320 319 318 317 316 314 313 313 312 311 310 308 305 303 301 297 293 290 288 285 281 278 273 270 267 265 264 263 263 261 260 258 256 254 252 250 248 246 245 243 242 240 239 237 236 235 234 233 232 232 232 232 232 233 233 233 233 233 233 233 233
323 323 323 324 324 324 324 324 324 324 324 323 323 323 322 322 321 321 321 322 322 322 323 323 322 322 321 321 320 318 317 316 316 316 315 314 312 310 308 305 302 298 295 291 288 285 282 279 275 272 268 267 265 264 263 262 260 258 256 254 251 249 247 245 243 242 240 239 238 236 235 233 232 231 231 231 231 231 231 231 232 232 232 232 232 232
324 324 324 324 324 324 324 324 324 324 324 324 323 323 322 322 321 321 322 322 323 324 324 325 324 324 324 323 322 321 319 319 318 319 318 317 316 314 311 309 306 303 299 295 292 289 286 283 280 277 273 271 269 267 266 264 262 261 259 256 254 251 249 246 244 242 241 239 238 236 235 233 232 231 230 230 229 229 229 230 230 230 230 231 231 231
324 325 325 325 325 325 325 325 325 325 324 324 323 323 322 321 321 321 321 322 323 324 325 326 326 326 325 324 323 322 321 321 321 321 321 320 319 317 314 312 309 307 303 299 296 293 290 287 285 282 280 276 273 271 270 268 266 264 262 260 257 254 251 249 246 243 241 240 238 236 235 233 232 231 230 229 228 228 228 228 228 229 229 229 229 229
325 325 325 325 325 325 325 325 325 325 324 324 323 322 321 320 320 320 321 322 323 324 326 326 327 327 326 326 325 324 323 323 323 323 323 322 321 320 317 315 312 310 306 303 300 298 294 291 289 286 284 281 278 276 274 272 270 268 265 263 260 257 254 251 248 245 242 240 238 237 235 233 232 231 229 229 228 227 227 227 227 227 227 228 228 228
325 326 326 326 326 326 326 325 325 325 324 323 323 322 321 320 319 319 320 321 322 324 325 327 327 328 327 326 325 325 324 323 324 324 324 324 324 322 320 317 315 312 310 307 304 302 299 296 293 290 288 285 283 281 279 277 274 271 269 267 264 261 258 255 251 247 244 241 239 237 235 234 232 231 229 228 227 227 226 226 226 226 226 226 227 227
326 326 326 326 326 326 326 326 325 325 324 323 323 322 320 319 319 319 319 320 322 323 325 327 328 328 328 327 326 325 324 324 324 324 325 325 325 324 322 320 317 315 312 310 307 305 303 300 298 295 293 290 288 286 284 281 279 276 273 271 269 266 262 259 254 250 247 243 241 238 236 234 232 231 230 228 227 226 226 225 225 225 225 225 225 226
326 327 327 327 327 326 326 326 325 325 324 323 322 321 320 319 318 318 319 320 321 323 325 326 327 328 328 328 327 326 325 324 324 324 325 325 326 326 324 322 320 317 315 312 310 308 306 304 303 301 299 296 294 291 289 286 283 281 278 275 272 269 266 263 259 254 250 246 242 239 237 235 233 231 230 228 227 226 225 225 224 224 224 224 224 225
327 327 327 327 327 327 326 326 325 325 324 323 322 320 319 318 318 318 318 319 320 322 324 325 327 327 328 328 328 327 326 324 324 324 324 325 325 325 325 323 321 319 317 315 313 311 309 308 306 305 303 302 300 297 295 292 289 287 283 279 275 273 270 267 263 259 254 249 245 241 238 236 233 231 230 228 227 226 225 224 224 223 223 223 223 223
327 327 327 327 327 327 326 326 325 325 324 322 321 320 319 318 317 317 318 319 320 321 323 324 325 326 327 328 328 327 326 324 323 323 323 323 324 324 324 323 322 320 318 315 314 312 311 310 308 306 305 304 302 300 298 296 294 292 288 285 281 278 274 270 266 262 257 252 248 244 240 237 234 232 230 228 227 226 225 224 223 223 222 222 222 222
327 327 327 327 327 327 327 326 325 324 323 322 321 320 319 317 317 316 317 318 319 321 322 323 324 325 326 327 328 327 326 325 323 322 322 322 322 322 322 322 321 319 318 316 314 312 311 309 307 307 306 305 303 301 300 298 297 295 293 290 286 282 277 272 269 265 261 256 251 247 242 238 235 232 230 228 227 226 224 223 222 222 221 221 221 221
328 328 328 328 327 327 327 326 325 324 323 322 321 320 318 317 316 316 316 318 319 320 321 322 323 324 325 326 327 327 326 325 323 322 321 321 320 320 320 320 319 318 317 315 314 312 310 309 307 306 305 304 303 301 300 299 297 296 295 293 290 286 281 277 273 268 263 259 254 250 245 240 237 233 231 229 227 225 224 223 222 221 221 220 220 220
328 328 328 328 328 327 327 326 325 324 323 322 321 319 318 316 315 315 315 317 318 319 320 321 322 322 323 324 325 326 326 325 324 322 321 320 319 318 318 318 318 317 316 315 314 312 311 309 307 306 304 302 301 300 299 298 297 296 295 294 293 290 286 282 277 271 265 261 257 252 247 243 238 235 232 229 227 225 224 222 221 220 220 220 219 219
328 328 328 328 328 327 327 326 325 324 323 322 321 319 317 316 315 314 315 316 317 319 320 320 321 321 321 322 323 324 324 324 323 323 321 320 318 317 316 316 316 315 315 314 313 312 311 310 308 306 304 302 301 300 299 298 297 296 295 294 293 291 289 286 281 276 270 264 259 255 250 245 241 236 233 230 227 225 223 222 221 220 219 219 219 218
328 328 328 328 328 327 327 326 325 324 323 322 320 319 317 315 314 313 314 315 317 318 319 320 320 320 320 320 321 322 322 322 322 322 321 320 319 317 316 315 314 313 313 313 312 311 311 310 308 307 305 303 301 300 298 297 296 295 294 293 292 290 289 286 284 280 275 269 263 257 253 247 243 238 234 231 228 225 224 222 221 219 219 218 218 218
329 329 328 328 328 327 327 326 325 324 323 322 320 318 316 314 313 312 313 314 316 317 318 319 319 319 319 319 320 320 320 321 321 321 321 320 319 318 316 315 314 313 312 311 311 310 310 309 308 307 306 304 303 301 299 298 296 295 294 292 291 289 287 286 284 282 278 273 267 261 255 250 245 240 236 232 228 226 224 222 221 219 218 218 217 217
329 329 329 328 328 327 327 326 325 324 323 321 320 318 316 314 312 311 312 313 315 316 317 318 319 319 319 319 319 319 319 319 319 319 320 319 319 318 317 315 314 313 312 311 310 309 309 308 308 307 306 306 304 303 301 299 298 296 294 293 290 288 286 284 283 281 279 275 271 265 259 253 248 242 238 233 230 227 224 222 221 219 218 217 217 216
329 329 329 328 328 327 326 326 325 324 322 321 319 318 315 313 311 310 311 312 314 315 317 318 318 318 318 318 318 318 319 319 319 319 319 319 319 318 317 316 315 314 312 311 310 309 308 308 307 307 306 306 305 305 303 302 300 298 297 295 292 289 286 283 281 279 278 276 273 268 263 257 251 245 240 235 231 228 225 223 221 220 218 217 217 216
Height
5669 5669 5669 5668 5668 5668 5667 5667 5667 5666 5665 5665 5665 5664 5663 5663 5662 5661 5661 5660 5659 5658 5658 5657 5656 5656 5655 5654 5653 5653 5652 5652 5651 5651 5651 5651 5650 5650 5649 5649 5650 5650 5651 5651 5650 5651 5652 5652 5653 5653 5653 5654 5655 5655 5656 5657 5657 5658 5659 5660 5661 5662 5663 5664 5665 5666 5667 5668 5669 5670 5671 5673 5674 5675 5676 5678 5678 5679 5680 5681 5681 5682 5683 5684 5685 5686
5665 5664 5664 5664 5664 5663 5662 5661 5661 5661 5660 5659 5659 5658 5658 5657 5656 5655 5654 5653 5653 5652 5651 5650 5649 5648 5648 5647 5646 5645 5645 5644 5644 5644 5643 5643 5643 5643 5642 5642 5642 5642 5643 5642 5642 5643 5643 5644 5645 5645 5646 5647 5647 5648 5648 5649 5650 5651 5652 5653 5654 5655 5656 5657 5658 5659 5660 5661 5663 5664 5665 5666 5668 5669 5670 5672 5673 5674 5675 5676 5677 5677 5678 5679 5680 5681
5661 5660 5659 5659 5658 5658 5657 5656 5656 5656 5654 5653 5653 5652 5652 5651 5650 5648 5648 5647 5646 5645 5644 5643 5642 5641 5640 5639 5638 5638 5637 5637 5636 5636 5636 5635 5635 5635 5634 5634 5634 5634 5635 5635 5635 5635 5635 5636 5636 5637 5638 5638 5639 5640 5641 5642 5643 5643 5645 5646 5647 5648 5649 5650 5651 5652 5653 5655 5656 5657 5658 5660 5661 5663 5664 5665 5667 5668 5669 5670 5671 5672 5673 5674 5675 5677
5656 5655 5654 5654 5653 5653 5652 5651 5650 5650 5649 5648 5647 5646 5646 5645 5644 5643 5642 5640 5639 5638 5637 5636 5635 5634 5633 5632 5631 5631 5630 5630 5629 5629 5628 5628 5628 5627 5627 5627 5627 5627 5627 5627 5627 5627 5627 5627 5628 5629 5629 5630 5631 5632 5633 5634 5635 5636 5637 5639 5640 5641 5642 5643 5644 5646 5647 5648 5649 5650 5652 5653 5654 5656 5658 5659 5661 5662 5663 5665 5666 5667 5668 5669 5670 5672
5651 5650 5649 5649 5648 5647 5646 5646 5645 5644 5644 5643 5642 5641 5640 5639 5638 5637 5636 5635 5634 5633 5632 5631 5629 5628 5627 5626 5626 5625 5624 5624 5623 5623 5622 5622 5621 5621 5620 5620 5620 5620 5620 5620 5620 5620 5620 5619 5619 5620 5621 5621 5622 5623 5624 5625 5627 5628 5630 5631 5633 5633 5635 5636 5638 5639 5640 5642 5643 5644 5645 5647 5648 5649 5651 5653 5654 5656 5658 5659 5660 5662 5663 5664 5665 5667
5647 5646 5645 5645 5644 5643 5642 5642 5641 5640 5639 5638 5638 5637 5636 5635 5634 5633 5632 5631 5630 5628 5627 5626 5625 5624 5623 5622 5621 5620 5619 5619 5618 5618 5617 5617 5616 5615 5615 5614 5614 5613 5613 5613 5613 5613 5613 5613 5613 5613 5613 5613 5614 5615 5616 5618 5619 5622 5623 5624 5625 5626 5628 5629 5630 5632 5633 5635 5636 5638 5639 5640 5642 5643 5645 5646 5648 5650 5651 5653 5654 5656 5658 5659 5660 5662
5643 5643 5642 5641 5640 5640 5639 5638 5638 5637 5636 5635 5634 5633 5632 5631 5630 5629 5628 5627 5626 5625 5623 5622 5621 5619 5618 5617 5616 5615 5615 5614 5613 5613 5612 5612 5611 5610 5609 5609 5608 5608 5607 5607 5607 5606 5606 5606 5606 5606 5606 5606 5606 5607 5608 5610 5612 5614 5616 5618 5619 5620 5621 5622 5623 5624 5626 5628 5629 5631 5632 5633 5635 5637 5639 5640 5642 5643 5645 5647 5649 5650 5652 5653 5655 5657
5640 5640 5639 5638 5638 5637 5636 5635 5634 5633 5633 5632 5631 5630 5629 5628 5627 5625 5624 5623 5622 5620 5619 5618 5617 5615 5613 5612 5611 5611 5610 5609 5609 5608 5607 5607 5606 5605 5604 5603 5603 5602 5602 5601 5601 5600 5600 5600 5599 5599 5599 5599 5599 5600 5601 5603 5604 5606 5608 5609 5611 5613 5613 5615 5616 5617 5619 5621 5622 5624 5625 5627 5628 5630 5633 5634 5636 5638 5639 5641 5643 5645 5647 5648 5650 5652
5637 5637 5636 5636 5635 5633 5633 5632 5631 5630 5629 5628 5627 5627 5626 5624 5623 5622 5620 5618 5617 5616 5615 5613 5612 5611 5609 5607 5606 5605 5605 5604 5604 5603 5602 5601 5600 5599 5599 5598 5597 5597 5596 5595 5595 5594 5594 5594 5593 5593 5593 5593 5593 5593 5594 5595 5597 5598 5600 5602 5603 5604 5606 5607 5609 5610 5612 5613 5615 5617 5619 5620 5622 5623 5625 5628 5630 5632 5634 5635 5637 5639 5641 5643 5644 5646
5635 5634 5633 5632 5632 5631 5629 5628 5628 5627 5625 5624 5623 5622 5621 5620 5619 5618 5617 5615 5613 5612 5610 5609 5607 5606 5604 5603 5601 5600 5599 5598 5598 5598 5597 5596 5595 5594 5593 5593 5592 5591 5590 5590 5589 5588 5588 5588 5588 5588 5588 5587 5587 5588 5588 5588 5590 5591 5593 5594 5595 5596 5598 5599 5601 5603 5604 5606 5608 5610 5612 5613 5615 5617 5618 5620 5623 5625 5628 5630 5632 5633 5635 5637 5639 5641
5632 5631 5630 5629 5628 5627 5626 5625 5624 5623 5622 5620 5619 5618 5617 5616 5615 5614 5613 5611 5610 5608 5606 5604 5602 5601 5599 5597 5596 5595 5594 5593 5592 5592 5591 5590 5588 5588 5587 5586 5586 5585 5584 5584 5583 5583 5582 5582 5582 5582 5582 5582 5581 5581 5582 5582 5583 5584 5585 5586 5587 5588 5590 5591 5593 5594 5596 5598 5600 5602 5604 5606 5608 5610 5612 5614 5616 5618 5620 5623 5626 5628 5629 5631 5633 5635
5628 5628 5627 5625 5624 5623 5623 5621 5620 5618 5618 5617 5615 5613 5612 5611 5610 5608 5607 5605 5604 5603 5602 5600 5598 5595 5593 5591 5590 5589 5588 5587 5586 5586 5585 5583 5582 5581 5580 5579 5579 5579 5578 5578 5577 5577 5576 5576 5575 5575 5575 5575 5575 5575 5575 5576 5576 5577 5578 5579 5580 5581 5582 5583 5585 5587 5588 5590 5593 5595 5597 5599 5602 5604 5606 5608 5609 5612 5614 5617 5619 5621 5623 5626 5628 5629
5625 5624 5623 5622 5621 5619 5618 5617 5616 5614 5613 5612 5610 5608 5607 5606 5604 5603 5601 5599 5598 5597 5596 5594 5592 5590 5587 5585 5583 5582 5582 5581 5580 5579 5579 5577 5575 5574 5573 5572 5572 5572 5571 5571 5570 5570 5569 5569 5569 5569 5568 5568 5568 5568 5569 5569 5570 5571 5572 5573 5573 5574 5575 5576 5577 5579 5580 5583 5585 5588 5590 5593 5595 5597 5599 5601 5603 5605 5608 5611 5613 5616 5618 5620 5622 5624
5621 5620 5619 5617 5616 5615 5614 5613 5611 5609 5608 5607 5605 5603 5602 5600 5598 5597 5595 5593 5592 5590 5589 5588 5586 5583 5581 5578 5576 5574 5573 5573 5573 5573 5572 5570 5568 5566 5565 5565 5564 5564 5564 5563 5563 5563 5562 5562 5562 5562 5562 5561 5561 5561 5562 5563 5563 5564 5565 5566 5567 5567 5568 5569 5570 5571 5573 5575 5578 5580 5583 5585 5588 5590 5592 5594 5596 5599 5602 5605 5608 5610 5613 5614 5616 5618
5617 5616 5614 5613 5612 5610 5609 5608 5606 5604 5603 5602 5600 5598 5596 5594 5593 5591 5589 5587 5585 5584 5583 5581 5578 5577 5574 5570 5568 5566 5565 5564 5564 5564 5564 5562 5560 5558 5557 5556 5556 5556 5556 5556 5555 5554 5554 5555 5554 5554 5554 5554 5554 5554 5555 5556 5557 5558 5558 5559 5560 5560 5561 5562 5563 5564 5566 5568 5571 5573 5576 5578 5580 5583 5585 5587 5589 5592 5596 5599 5602 5605 5606 5608 5610 5613
5613 5612 5610 5609 5608 5606 5605 5603 5602 5600 5598 5597 5595 5593 5591 5589 5587 5585 5583 5581 5579 5577 5576 5573 5571 5569 5567 5563 5560 5557 5555 5555 5555 5556 5555 5554 5551 5549 5548 5547 5547 5547 5548 5548 5547 5546 5546 5546 5546 5546 5546 5546 5546 5546 5547 5548 5549 5550 5551 5552 5553 5553 5554 5555 5556 5558 5560 5562 5564 5567 5568 5570 5573 5575 5577 5580 5583 5585 5589 5593 5596 5598 5600 5602 5604 5606
5610 5608 5607 5605 5604 5602 5601 5600 5598 5596 5594 5592 5590 5588 5586 5583 5581 5579 5577 5575 5572 5570 5568 5566 5563 5561 5559 5556 5553 5549 5546 5546 5545 5546 5546 5545 5542 5539 5538 5537 5537 5537 5538 5538 5538 5537 5537 5537 5537 5537 5537 5537 5537 5538 5539 5540 5542 5543 5544 5545 5545 5546 5547 5548 5550 5552 5554 5556 5558 5560 5561 5563 5565 5567 5570 5572 5575 5578 5582 5586 5589 5592 5594 5596 5598 5600
5607 5605 5603 5602 5600 5599 5597 5596 5594 5592 5590 5588 5586 5583 5581 5578 5576 5573 5570 5568 5565 5563 5560 5558 5555 5553 5550 5547 5544 5541 5538 5537 5536 5535 5536 5535 5533 5530 5528 5527 5527 5527 5527 5528 5527 5527 5527 5527 5527 5527 5528 5528 5528 5529 5530 5532 5533 5534 5536 5537 5538 5539 5540 5542 5543 5546 5548 5550 5551 5553 5554 5555 5557 5559 5562 5565 5568 5571 5575 5578 5582 5585 5588 5590 5592 5594
5603 5602 5600 5598 5597 5595 5593 5592 5589 5588 5585 5583 5581 5578 5575 5572 5569 5566 5563 5560 5557 5554 5552 5549 5546 5543 5540 5538 5534 5530 5528 5527 5526 5524 5525 5525 5523 5520 5518 5517 5516 5516 5516 5517 5516 5515 5516 5516 5517 5517 5518 5518 5518 5519 5521 5522 5524 5525 5527 5528 5530 5531 5533 5535 5537 5539 5541 5543 5544 5545 5547 5548 5550 5552 5555 5558 5560 5564 5567 5571 5574 5578 5581 5584 5586 5589
5599 5598 5597 5595 5593 5591 5589 5587 5585 5582 5580 5577 5574 5572 5568 5565 5562 5559 5555 5552 5549 5546 5543 5539 5536 5532 5529 5527 5523 5520 5517 5515 5514 5513 5513 5513 5512 5510 5507 5506 5505 5505 5505 5505 5504 5504 5504 5505 5505 5506 5507 5507 5508 5509 5511 5513 5514 5516 5518 5519 5521 5523 5525 5527 5529 5532 5533 5535 5537 5538 5540 5542 5543 5546 5548 5550 5553 5556 5559 5563 5566 5570 5573 5577 5580 5583
5595 5594 5593 5591 5588 5586 5583 5581 5579 5576 5573 5571 5568 5565 5562 5558 5555 5551 5548 5544 5541 5537 5533 5530 5526 5522 5518 5516 5512 5508 5504 5503 5502 5501 5500 5501 5501 5499 5496 5494 5493 5493 5493 5493 5493 5492 5492 5493 5494 5494 5495 5495 5496 5498 5500 5502 5504 5506 5508 5510 5512 5514 5517 5519 5522 5524 5526 5528 5530 5531 5533 5535 5537 5539 5542 5544 5546 5549 5552 5555 5558 5562 5566 5569 5573 5576
5591 5589 5587 5585 5583 5581 5578 5575 5573 5569 5567 5564 5560 5557 5554 5551 5547 5543 5539 5536 5532 5528 5523 5519 5515 5511 5507 5504 5500 5496 5492 5491 5489 5488 5487 5488 5488 5487 5484 5482 5481 5481 5481 5481 5480 5480 5480 5481 5482 5483 5483 5484 5485 5486 5488 5490 5493 5495 5498 5500 5503 5505 5508 5511 5513 5516 5518 5520 5522 5524 5526 5529 5531 5533 5535 5537 5539 5542 5544 5548 5551 5554 5558 5562 5565 5569
5586 5583 5581 5579 5577 5574 5572 5569 5566 5563 5560 5556 5553 5549 5545 5542 5538 5534 5530 5526 5522 5518 5513 5509 5505 5501 5496 5492 5488 5484 5480 5478 5476 5475 5474 5475 5475 5474 5472 5470 5469 5469 5469 5468 5468 5468 5468 5469 5470 5470 5471 5472 5473 5474 5476 5478 5481 5484 5487 5490 5493 5496 5499 5502 5505 5507 5510 5512 5514 5517 5519 5522 5524 5527 5529 5531 5533 5535 5538 5540 5543 5547 5551 5554 5558 5562
5580 5578 5576 5573 5571 5568 5565 5562 5559 5556 5553 5549 5545 5541 5537 5533 5528 5524 5519 5515 5511 5507 5503 5499 5495 5490 5485 5481 5477 5473 5468 5465 5463 5462 5462 5462 5462 5461 5459 5458 5457 5457 5457 5456 5455 5455 5456 5457 5458 5458 5459 5460 5461 5462 5464 5466 5469 5472 5476 5479 5483 5486 5489 5493 5495 5498 5501 5504 5507 5509 5512 5515 5517 5520 5522 5524 5527 5528 5531 5533 5536 5539 5543 5547 5551 5555
5575 5572 5570 5567 5564 5562 5558 5555 5552 5549 5545 5541 5537 5533 5528 5524 5519 5514 5509 5505 5501 5496 5492 5488 5484 5480 5475 5471 5467 5463 5458 5453 5451 5450 5450 5449 5449 5448 5447 5445 5444 5445 5445 5444 5443 5443 5444 5445 5445 5446 5447 5448 5449 5450 5452 5454 5457 5460 5464 5468 5472 5476 5479 5483 5486 5489 5492 5495 5498 5502 5504 5507 5510 5513 5515 5518 5520 5522 5524 5527 5529 5532 5536 5539 5543 5548
5569 5566 5563 5561 5558 5555 5552 5548 5545 5541 5537 5533 5529 5524 5520 5515 5510 5505 5500 5495 5491 5487 5483 5478 5474 5470 5465 5461 5457 5452 5447 5443 5441 5439 5438 5438 5437 5437 5435 5433 5432 5433 5433 5432 5432 5432 5433 5433 5433 5434 5435 5436 5437 5438 5440 5442 5445 5448 5452 5456 5460 5464 5468 5472 5476 5479 5483 5486 5490 5493 5496 5499 5503 5505 5508 5511 5513 5516 5518 5520 5523 5525 5528 5532 5536 5541
5563 5560 5557 5554 5551 5548 5544 5541 5537 5533 5529 5525 5520 5516 5511 5507 5502 5496 5491 5486 5482 5478 5473 5469 5465 5461 5457 5453 5448 5443 5438 5434 5431 5429 5428 5427 5426 5425 5424 5422 5421 5421 5421 5421 5421 5421 5421 5422 5422 5423 5423 5424 5425 5427 5429 5431 5433 5436 5440 5444 5448 5453 5457 5461 5465 5469 5473 5477 5480 5484 5488 5491 5494 5497 5500 5503 5506 5508 5511 5513 5516 5518 5521 5525 5529 5533
5557 5554 5551 5548 5544 5541 5537 5533 5529 5525 5521 5516 5512 5507 5502 5498 5493 5487 5482 5477 5473 5468 5464 5460 5456 5452 5448 5444 5440 5435 5430 5426 5423 5420 5418 5417 5417 5416 5413 5411 5410 5410 5410 5411 5411 5411 5411 5412 5412 5412 5413 5414 5415 5416 5418 5420 5422 5425 5428 5433 5437 5441 5445 5450 5454 5459 5463 5467 5471 5475 5478 5482 5486 5489 5492 5495 5498 5501 5504 5507 5509 5512 5515 5518 5522 5527
5551 5548 5544 5541 5538 5533 5530 5526 5521 5517 5513 5508 5503 5498 5493 5488 5483 5478 5473 5468 5464 5460 5455 5451 5447 5443 5440 5436 5432 5428 5423 5419 5415 5412 5410 5409 5408 5407 5403 5402 5401 5401 5400 5401 5402 5403 5403 5403 5401 5401 5403 5404 5405 5406 5408 5409 5412 5414 5418 5421 5425 5429 5433 5438 5443 5448 5453 5457 5461 5465 5469 5473 5477 5480 5484 5488 5491 5494 5497 5500 5503 5505 5508 5511 5515 5519
5545 5542 5538 5534 5531 5527 5523 5518 5514 5509 5504 5499 5494 5489 5484 5479 5475 5470 5465 5460 5456 5452 5448 5443 5439 5435 5432 5428 5425 5421 5417 5413 5408 5405 5403 5403 5401 5398 5396 5395 5393 5392 5391 5392 5394 5395 5396 5394 5393 5392 5393 5394 5395 5397 5398 5400 5402 5404 5407 5411 5414 5418 5422 5427 5432 5437 5442 5446 5451 5455 5459 5463 5467 5471 5475 5479 5483 5486 5490 5493 5496 5498 5502 5505 5508 5513
5539 5536 5532 5528 5524 5520 5516 5511 5507 5502 5497 5491 5486 5481 5476 5471 5466 5462 5457 5453 5449 5445 5441 5436 5432 5428 5424 5421 5418 5415 5411 5406 5403 5400 5398 5397 5395 5392 5390 5389 5387 5384 5383 5384 5386 5388 5389 5388 5387 5385 5385 5385 5387 5388 5389 5391 5393 5395 5398 5401 5404 5408 5411 5416 5420 5426 5431 5435 5440 5444 5449 5453 5458 5462 5466 5471 5475 5478 5482 5485 5488 5492 5495 5499 5502 5506
5533 5530 5526 5522 5518 5513 5508 5504 5499 5494 5489 5484 5478 5473 5468 5463 5459 5454 5450 5446 5442 5438 5434 5430 5426 5422 5418 5415 5412 5408 5404 5401 5398 5395 5393 5392 5389 5386 5385 5384 5382 5379 5378 5378 5379 5380 5382 5382 5381 5380 5378 5379 5379 5380 5381 5383 5384 5387 5389 5392 5395 5398 5401 5405 5410 5415 5420 5424 5429 5434 5438 5443 5448 5453 5458 5462 5467 5471 5474 5478 5482 5485 5489 5493 5496 5500
5528 5524 5519 5515 5511 5506 5502 5497 5492 5487 5482 5477 5472 5466 5461 5457 5452 5448 5443 5440 5436 5432 5428 5425 5421 5417 5413 5410 5407 5403 5400 5396 5393 5391 5389 5388 5385 5382 5380 5379 5378 5375 5374 5373 5373 5373 5375 5376 5376 5375 5375 5374 5373 5373 5374 5375 5377 5379 5381 5384 5387 5389 5392 5396 5400 5405 5409 5414 5418 5423 5428 5433 5438 5443 5448 5453 5458 5463 5467 5470 5474 5478 5482 5486 5490 5493
5522 5518 5513 5509 5504 5499 5495 5490 5485 5480 5475 5470 5465 5460 5455 5451 5446 5442 5438 5434 5430 5427 5423 5420 5416 5413 5409 5406 5403 5400 5396 5393 5390 5388 5386 5384 5382 5379 5377 5376 5374 5372 5371 5370 5369 5369 5369 5370 5370 5370 5371 5370 5369 5369 5369 5369 5370 5372 5374 5377 5379 5382 5384 5387 5391 5395 5399 5404 5408 5413 5418 5424 5429 5434 5439 5445 5450 5454 5459 5463 5467 5471 5475 5479 5483 5487
5516 5512 5508 5503 5498 5493 5489 5484 5479 5474 5469 5464 5460 5455 5450 5445 5441 5437 5433 5429 5426 5422 5418 5415 5412 5408 5405 5402 5399 5396 5393 5390 5388 5385 5383 5381 5379 5377 5375 5373 5371 5369 5368 5367 5366 5366 5366 5365 5365 5366 5366 5366 5365 5365 5365 5364 5365 5366 5368 5370 5372 5374 5376 5379 5383 5387 5390 5394 5399 5404 5408 5414 5419 5425 5430 5435 5440 5446 5451 5455 5459 5463 5468 5473 5477 5481
5511 5506 5502 5498 5493 5488 5483 5478 5473 5469 5464 5459 5454 5450 5446 5441 5437 5433 5429 5426 5422 5419 5415 5411 5408 5404 5401 5398 5396 5393 5390 5388 5385 5383 5381 5379 5377 5375 5373 5371 5369 5368 5367 5365 5364 5363 5363 5363 5362 5362 5362 5363 5362 5362 5361 5360 5361 5362 5363 5364 5366 5368 5369 5372 5375 5379 5382 5386 5391 5395 5399 5404 5410 5415 5420 5426 5431 5436 5441 5446 5451 5455 5460 5465 5470 5474
5506 5501 5497 5493 5488 5483 5478 5473 5468 5464 5459 5454 5450 5446 5442 5438 5434 5430 5426 5423 5420 5416 5413 5409 5405 5401 5398 5395 5393 5390 5388 5385 5383 5381 5379 5377 5375 5373 5372 5369 5368 5366 5365 5363 5362 5362 5361 5360 5360 5359 5359 5359 5359 5358 5358 5357 5358 5358 5359 5359 5360 5362 5363 5366 5368 5372 5375 5379 5382 5386 5390 5395 5401 5406 5411 5416 5421 5426 5431 5437 5442 5447 5452 5457 5462 5467
5501 5496 5492 5487 5483 5478 5473 5468 5463 5459 5455 5451 5447 5442 5438 5435 5431 5428 5424 5421 5417 5414 5411 5407 5403 5399 5396 5393 5390 5387 5385 5383 5381 5379 5378 5376 5374 5372 5370 5368 5366 5365 5363 5362 5361 5360 5359 5359 5358 5358 5357 5357 5356 5356 5355 5355 5355 5355 5355 5355 5356 5357 5358 5360 5362 5365 5368 5372 5375 5378 5382 5387 5392 5397 5402 5407 5412 5418 5423 5428 5434 5439 5444 5449 5454 5459
5495 5491 5487 5482 5478 5473 5468 5464 5459 5455 5450 5446 5443 5439 5436 5432 5428 5425 5422 5418 5415 5412 5409 5406 5402 5398 5394 5391 5388 5385 5383 5381 5379 5378 5376 5374 5373 5371 5369 5368 5366 5364 5362 5361 5360 5359 5358 5357 5357 5356 5355 5355 5354 5353 5353 5352 5352 5352 5352 5352 5353 5353 5354 5355 5357 5360 5362 5365 5368 5372 5375 5379 5383 5388 5393 5398 5404 5409 5415 5420 5426 5431 5436 5442 5447 5452
5490 5486 5482 5477 5473 5468 5464 5459 5455 5451 5447 5443 5439 5435 5432 5429 5426 5423 5419 5416 5413 5410 5408 5404 5401 5397 5393 5390 5387 5384 5381 5379 5378 5376 5374 5373 5371 5370 5368 5367 5365 5363 5362 5360 5359 5358 5357 5356 5355 5354 5354 5353 5353 5352 5351 5350 5350 5349 5349 5350 5350 5350 5350 5350 5352 5354 5357 5359 5363 5365 5368 5372 5376 5380 5385 5390 5395 5401 5407 5412 5418 5423 5429 5435 5440 5445
5486 5481 5477 5472 5468 5463 5459 5455 5451 5447 5443 5439 5435 5432 5429 5426 5423 5421 5417 5414 5411 5408 5406 5403 5399 5396 5392 5388 5385 5383 5380 5378 5376 5375 5373 5372 5370 5369 5367 5366 5364 5363 5362 5360 5359 5358 5356 5355 5354 5353 5353 5352 5351 5351 5350 5349 5348 5348 5348 5348 5348 5347 5347 5348 5349 5350 5352 5354 5357 5359 5362 5366 5369 5373 5378 5382 5387 5393 5398 5403 5409 5416 5422 5427 5433 5438
5481 5477 5473 5468 5463 5459 5455 5451 5446 5443 5438 5435 5432 5428 5426 5423 5421 5418 5415 5413 5410 5407 5404 5402 5398 5395 5392 5388 5385 5382 5379 5377 5375 5373 5372 5371 5369 5368 5366 5365 5364 5362 5361 5360 5358 5357 5356 5355 5353 5353 5352 5351 5350 5349 5348 5347 5346 5346 5346 5345 5345 5345 5345 5345 5345 5346 5348 5350 5352 5354 5357 5360 5363 5367 5371 5375 5380 5384 5390 5396 5402 5408 5413 5419 5425 5430
5477 5473 5468 5464 5459 5455 5451 5447 5443 5439 5435 5431 5428 5425 5422 5420 5418 5415 5413 5411 5408 5405 5403 5400 5397 5395 5392 5388 5385 5382 5379 5376 5374 5372 5371 5369 5368 5367 5366 5364 5363 5362 5361 5359 5358 5357 5356 5354 5353 5352 5351 5350 5349 5348 5347 5346 5345 5344 5343 5343 5343 5343 5343 5343 5342 5343 5344 5346 5347 5349 5352 5355 5358 5360 5364 5368 5373 5377 5383 5388 5394 5399 5405 5412 5418 5423
5473 5468 5464 5460 5456 5451 5447 5443 5439 5435 5432 5428 5425 5422 5419 5416 5414 5412 5410 5408 5406 5403 5401 5398 5396 5393 5391 5388 5385 5382 5379 5376 5373 5371 5369 5368 5367 5366 5364 5363 5362 5361 5359 5358 5358 5357 5355 5354 5353 5351 5350 5349 5348 5347 5346 5345 5344 5343 5342 5341 5341 5341 5341 5340 5340 5341 5342 5342 5343 5345 5347 5349 5352 5355 5359 5363 5367 5371 5376 5381 5386 5392 5397 5403 5410 5415
5468 5464 5460 5456 5452 5448 5443 5439 5435 5432 5428 5425 5422 5418 5416 5413 5411 5409 5408 5405 5403 5401 5398 5396 5394 5391 5389 5387 5384 5382 5379 5376 5373 5371 5369 5367 5365 5364 5363 5362 5361 5359 5358 5357 5356 5355 5354 5353 5352 5351 5349 5348 5347 5346 5345 5344 5343 5342 5341 5340 5339 5339 5338 5338 5338 5339 5339 5339 5340 5341 5343 5344 5347 5351 5354 5358 5361 5365 5369 5374 5379 5384 5390 5396 5402 5408
5464 5460 5456 5452 5448 5443 5440 5436 5432 5428 5425 5421 5418 5415 5413 5410 5408 5406 5405 5403 5401 5398 5396 5394 5392 5389 5387 5385 5383 5381 5378 5376 5373 5371 5368 5367 5365 5363 5362 5360 5359 5358 5357 5356 5355 5353 5353 5352 5351 5350 5349 5348 5346 5345 5344 5343 5342 5341 5340 5339 5338 5338 5337 5336 5336 5336 5336 5336 5337 5338 5338 5340 5343 5347 5350 5352 5355 5358 5363 5367 5372 5378 5383 5388 5395 5401
5460 5456 5452 5448 5444 5440 5436 5432 5429 5425 5422 5418 5415 5413 5410 5408 5406 5403 5402 5400 5398 5396 5394 5392 5390 5387 5385 5383 5381 5379 5377 5375 5373 5371 5368 5366 5364 5363 5361 5359 5358 5357 5355 5354 5353 5352 5351 5349 5348 5348 5347 5346 5345 5344 5343 5342 5341 5339 5338 5338 5337 5336 5335 5334 5334 5334 5333 5334 5334 5334 5335 5337 5340 5342 5344 5347 5350 5353 5358 5362 5366 5371 5376 5382 5388 5394
5457 5453 5448 5444 5440 5436 5433 5429 5426 5423 5419 5416 5413 5410 5407 5405 5403 5401 5399 5398 5396 5394 5392 5390 5388 5385 5383 5381 5379 5377 5375 5373 5371 5369 5368 5366 5364 5362 5360 5358 5357 5355 5354 5353 5351 5350 5348 5347 5346 5345 5344 5344 5343 5342 5341 5340 5339 5338 5338 5337 5336 5335 5334 5333 5332 5332 5332 5332 5332 5332 5333 5334 5336 5338 5339 5342 5346 5349 5353 5356 5360 5365 5370 5375 5381 5386
5453 5449 5445 5441 5437 5433 5429 5426 5423 5420 5417 5414 5411 5408 5405 5402 5401 5399 5397 5395 5393 5392 5390 5388 5385 5383 5381 5379 5377 5375 5373 5371 5369 5368 5366 5364 5363 5361 5359 5358 5356 5354 5353 5351 5350 5348 5347 5345 5344 5343 5342 5341 5340 5340 5339 5338 5338 5337 5336 5335 5334 5333 5333 5332 5331 5330 5329 5329 5329 5329 5330 5331 5332 5333 5336 5339 5342 5344 5347 5351 5355 5359 5363 5368 5374 5379
5449 5445 5441 5438 5434 5430 5427 5423 5420 5417 5414 5411 5408 5406 5403 5400 5398 5396 5394 5393 5391 5389 5388 5386 5383 5381 5379 5377 5375 5373 5371 5369 5368 5366 5364 5363 5361 5359 5358 5357 5355 5354 5352 5351 5349 5348 5346 5344 5343 5341 5339 5338 5337 5337 5336 5336 5335 5335 5334 5333 5333 5332 5331 5330 5329 5328 5328 5327 5327 5327 5327 5328 5329 5331 5333 5336 5338 5340 5343 5346 5350 5354 5358 5362 5367 5373
5445 5441 5438 5434 5431 5427 5423 5420 5417 5414 5411 5408 5406 5403 5401 5398 5396 5394 5392 5391 5389 5387 5385 5383 5382 5379 5377 5375 5373 5371 5369 5367 5365 5364 5362 5361 5359 5358 5356 5355 5353 5352 5351 5349 5348 5347 5345 5343 5342 5339 5337 5335 5334 5333 5333 5333 5332 5332 5332 5331 5330 5330 5329 5328 5328 5327 5326 5325 5325 5325 5325 5326 5327 5328 5330 5332 5334 5336 5339 5342 5345 5348 5352 5356 5361 5367